Flag for U.S.A. Weather past 2 weeks in Colorado Springs, Colorado, U.S.A.

Now
36 °F

Passing clouds.


Feels Like: 28 °F
Forecast: 38 / 60 °F
Wind: 12 mph from North

Location: City Of Colorado Springs Municipal Airport

Current Time: Jan 26, 2015 at 3:45:32 AM

Latest Report: Jan 26, 2015 at 2:54 AM


Visibility: 10 mi

Pressure: 30.24 "Hg

Humidity: 62%

Dew point: 24 °F

Location of Colorado SpringsLocation

Historic Weather in Colorado Springs — Graph

°F

Colorado Springs temperature yesterday

Maximum temperature yesterday: 52 °F (at 1:54 PM)
Minimum temperature yesterday: 28 °F (at 5:54 AM)
Average temperature yesterday: 38 °F

Past Weeks' High & Low Weather Summary

 TemperatureHumidityPressure
High57 °F (Jan 18, 10:54 AM)100% (Jan 20, 3:01 PM)30.57 "Hg (Jan 20, 3:01 PM)
Low5 °F (Jan 22, 7:54 AM)13% (Jan 18, 5:54 AM)29.82 "Hg (Jan 16, 7:54 PM)
Average33 °F61%30.23 "Hg
* Reported Jan 11 2:54 AM — Jan 26 2:54 AM, Colorado Springs, Weather by CustomWeather, © 2014

Note: Actual official high and low records may vary slightly from our data, if they occured in-between our weather recording intervals... More about our weather records

Advertising

Colorado Springs weather history for previous 24 hours

 ConditionsComfort  
Time TempWeatherWind HumidityBarometerVisibility
2:54 AM
Jan 26
36 °FPassing clouds.12 mph62%30.24 "Hg10 mi
1:54 AM37 °FPassing clouds.3 mph57%30.23 "Hg10 mi
12:54 AM36 °FPassing clouds.3 mph62%30.24 "Hg10 mi
11:54 PM
Jan 25
35 °FClear.7 mph64%30.26 "Hg10 mi
10:54 PM34 °FClear.9 mph67%30.29 "Hg10 mi
9:54 PM37 °FClear.7 mph60%30.27 "Hg10 mi
8:54 PM33 °FClear.10 mph72%30.30 "Hg10 mi
7:54 PM34 °FClear.6 mph70%30.32 "Hg10 mi
6:54 PM37 °FPassing clouds.5 mph62%30.30 "Hg10 mi
5:54 PM45 °FPassing clouds.No wind45%30.26 "Hg10 mi
4:54 PM48 °FPartly sunny.7 mph41%30.21 "Hg10 mi
3:54 PM51 °FPartly sunny.5 mph36%30.18 "Hg10 mi
2:54 PM52 °FPartly sunny.8 mph34%30.13 "Hg10 mi
1:54 PM52 °FPartly sunny.5 mph34%30.14 "Hg10 mi
12:54 PM50 °FScattered clouds.5 mph38%30.17 "Hg10 mi
11:54 AM46 °FScattered clouds.5 mph46%30.20 "Hg10 mi
10:54 AM41 °FPassing clouds.3 mph58%30.24 "Hg10 mi
9:54 AM38 °FPassing clouds.No wind65%30.23 "Hg10 mi
8:54 AM34 °FPassing clouds.3 mph76%30.23 "Hg10 mi
7:54 AM29 °FPassing clouds.No wind79%30.25 "Hg10 mi
6:54 AM30 °FPassing clouds.5 mph79%30.26 "Hg10 mi
5:54 AM28 °FClear.3 mph85%30.22 "Hg10 mi
4:54 AM29 °FClear.3 mph82%30.20 "Hg10 mi
3:54 AM31 °FClear.3 mph73%30.15 "Hg10 mi
Weather by CustomWeather, © 2014

See weather overviewHow to use our weather pages